Campo, CA

8:37 PM PDT on April 27, 2017 (GMT -0700)
Campo

Weather History for KCZZ - March, 2013

Change the Weather History Date:

Thursday, March 28, 2013

  Actual Average Record
Temperature  
Mean Temperature 55 °F 52 °F  
Max Temperature 75 °F 69 °F 86 °F (2015)
Min Temperature 35 °F 36 °F 20 °F (1972)
Degree Days  
Heating Degree Days 10 13  
Month to date heating degree days 342 380  
Since 1 July heating degree days 2486 2431  
Cooling Degree Days 0 0  
Month to date cooling degree days 0 0  
Year to date cooling degree days 0 0  
Growing Degree Days 5 (Base 50)    
Moisture  
Dew Point 39 °F    
Average Humidity 56    
Maximum Humidity 85    
Minimum Humidity 27    
Precipitation  
Precipitation 0.00 in 0.06 in 1.33 in (1998)
Month to date precipitation 1.43 2.52  
Year to date precipitation 4.44 8.73  
Since 1 July precipitation 8.91  
Snow  
Snow 0.00 in - - ()
Month to date snowfall 0.0  
Year to date snowfall 0.0  
Snow Depth 0.00 in    
Sea Level Pressure  
Sea Level Pressure 29.97 in    
Wind  
Wind Speed 8 mph (NW)    
Max Wind Speed 18 mph    
Max Gust Speed 28 mph    
T = Trace of Precipitation, MM = Missing Value Source: NWS Daily Summary

Daily Weather History Graph

Daily Weather History Graph

Search for Another Location

Airport or City:

Trip Planner

Search our weather history database for the weather conditions in past years. The results will help you decide how hot, cold, wet, or windy it might be!

Date:

Astronomy

Mar. 28, 2013 Rise Set
Actual Time 6:38 AM PDT 7:03 PM PDT
Civil Twilight 6:14 AM PDT 7:28 PM PDT
Nautical Twilight 5:45 AM PDT 7:57 PM PDT
Astronomical Twilight 5:15 AM PDT 8:26 PM PDT
Moon 8:51 PM PDT 7:16 AM PDT
Length of Visible Light 13h 14m
Length of Day
12h 24m
Full, 98% of the Moon is Illuminated
Mar 28
Full
Apr 2
Last Quarter
Apr 10
New
Apr 18
First Quarter
Apr 25
Full

Hourly Weather History & Observations

Time (PDT) Temp. Windchill Dew Point Humidity Pressure Visibility Wind Dir Wind Speed Gust Speed Precip Events Conditions
12:52 AM 42.1 °F 38.4 °F 36.0 °F 79% 29.98 in - NE 5.8 mph - N/A   Unknown
1:52 AM 43.0 °F - 37.0 °F 80% 29.96 in - Calm Calm - N/A   Unknown
2:52 AM 41.0 °F 37.1 °F 36.0 °F 82% 29.95 in - ENE 5.8 mph - N/A   Unknown
3:52 AM 41.0 °F 38.0 °F 35.1 °F 79% 29.95 in - NE 4.6 mph - N/A   Unknown
4:52 AM 39.0 °F 34.0 °F 34.0 °F 82% 29.95 in - ENE 6.9 mph - N/A   Unknown
5:52 AM 37.9 °F 33.5 °F 34.0 °F 86% 29.96 in - ENE 5.8 mph - N/A   Unknown
6:52 AM 37.9 °F 33.5 °F 34.0 °F 86% 29.97 in - ENE 5.8 mph - N/A   Unknown
7:52 AM 46.9 °F - 39.0 °F 74% 29.97 in - ENE 5.8 mph - N/A   Unknown
8:52 AM 57.0 °F - 41.0 °F 55% 29.97 in - Calm Calm - N/A   Unknown
9:52 AM 63.0 °F - 39.0 °F 41% 29.99 in - SSW 6.9 mph - N/A   Unknown
10:52 AM 66.9 °F - 39.9 °F 37% 29.99 in - SSW 11.5 mph - N/A   Unknown
11:52 AM 72.0 °F - 35.1 °F 26% 29.96 in - WSW 6.9 mph - N/A   Unknown
12:52 PM 73.0 °F - 37.9 °F 28% 29.95 in - SW 15.0 mph 19.6 mph N/A   Unknown
1:52 PM 73.0 °F - 39.0 °F 29% 29.95 in - WSW 10.4 mph 17.3 mph N/A   Unknown
2:52 PM 73.9 °F - 39.0 °F 28% 29.94 in - West 11.5 mph - N/A   Unknown
3:52 PM 72.0 °F - 39.0 °F 30% 29.94 in - WNW 15.0 mph - N/A   Unknown
4:52 PM 70.0 °F - 42.1 °F 36% 29.95 in - West 12.7 mph - N/A   Unknown
5:52 PM 68.0 °F - 42.1 °F 39% 29.96 in - West 6.9 mph - N/A   Unknown
6:52 PM 63.0 °F - 44.1 °F 50% 29.97 in - WSW 4.6 mph - N/A   Unknown
7:52 PM 57.9 °F - 44.1 °F 60% 29.98 in - South 3.5 mph - N/A   Unknown
8:52 PM 53.1 °F - 42.1 °F 66% 29.99 in - Calm Calm - N/A   Unknown
9:52 PM 51.1 °F - 41.0 °F 68% 30.01 in - Calm Calm - N/A   Unknown
10:52 PM 46.0 °F 42.5 °F 39.9 °F 79% 30.01 in - NE 6.9 mph - N/A   Unknown
11:52 PM 46.0 °F 43.1 °F 39.0 °F 76% 30.00 in - ENE 5.8 mph - N/A   Unknown